Weather History for Mammoth, CA

Change the Weather History Date:

Monday, December 30, 2013

  Actual Average Record
Temperature  
Mean Temperature 32 °F -  
Max Temperature 57 °F 35 °F 57 °F (1998)
Min Temperature 6 °F 21 °F 0 °F (2010)
Degree Days  
Heating Degree Days 34    
Moisture  
Dew Point 5 °F    
Average Humidity 40    
Maximum Humidity 73    
Minimum Humidity 13    
Precipitation  
Precipitation 0.00 in - - ()
Sea Level Pressure  
Sea Level Pressure 30.34 in    
Wind  
Wind Speed 1 mph (SE)    
Max Wind Speed 8 mph    
Max Gust Speed -    
Visibility 10 miles    
Events      
Averages and records for this station are not official NWS values.
T = Trace of Precipitation, MM = Missing Value Source: NWS Daily Summary

Daily Weather History Graph

Daily Weather History Graph

Search for Another Location

Airport:

Trip Planner

Search our weather history database for the weather conditions in past years. The results will help you decide how hot, cold, wet, or windy it might be!

Date:

Astronomy

Dec. 30, 2013 Rise Set
Actual Time 7:10 AM PST 4:46 PM PST
Civil Twilight 6:40 AM PST 5:15 PM PST
Nautical Twilight 6:08 AM PST 5:48 PM PST
Astronomical Twilight 5:36 AM PST 6:20 PM PST
Moon 5:06 AM PST (12/30) 3:23 PM PST (12/30)
Length of Visible Light 10h 34m
Length of Day
9h 36m
Waning Crescent, 4% of the Moon is Illuminated
Dec 30
Waning Crescent
Jan 1
New
Jan 7
First Quarter
Jan 15
Full
Jan 23
Last Quarter

Hourly Weather History & Observations

Time (PST) Temp. Windchill Dew Point Humidity Pressure Visibility Wind Dir Wind Speed Gust Speed Precip Events Conditions
12:15 AM 23.0 °F - 6.8 °F 50% 30.34 in 10.0 mi Calm Calm - N/A   Clear
12:35 AM 21.2 °F - 6.8 °F 54% 30.34 in 10.0 mi Calm Calm - N/A   Clear
12:55 AM 19.4 °F - 5.0 °F 54% 30.34 in 10.0 mi Calm Calm - N/A   Clear
1:15 AM 21.2 °F - 6.8 °F 54% 30.33 in 10.0 mi Calm Calm - N/A   Clear
1:35 AM 19.4 °F - 6.8 °F 58% 30.34 in 10.0 mi Calm Calm - N/A   Clear
1:55 AM 17.6 °F - 3.2 °F 53% 30.34 in 10.0 mi Calm Calm - N/A   Clear
2:15 AM 14.0 °F - 3.2 °F 62% 30.34 in 10.0 mi Calm Calm - N/A   Clear
2:35 AM 15.8 °F - 5.0 °F 62% 30.34 in 10.0 mi Calm Calm - N/A   Clear
2:55 AM 10.4 °F - -0.4 °F 62% 30.35 in 10.0 mi Calm Calm - N/A   Clear
3:15 AM 17.6 °F - 6.8 °F 63% 30.35 in 10.0 mi Calm Calm - N/A   Clear
3:35 AM 12.2 °F - 5.0 °F 73% 30.35 in 10.0 mi Calm Calm - N/A   Clear
3:55 AM 10.4 °F - -0.4 °F 62% 30.35 in 10.0 mi Calm Calm - N/A   Clear
4:15 AM 12.2 °F - 3.2 °F 67% 30.34 in 10.0 mi Calm Calm - N/A   Clear
4:35 AM 15.8 °F - 5.0 °F 62% 30.34 in 10.0 mi Calm Calm - N/A   Clear
4:55 AM 17.6 °F - 6.8 °F 63% 30.34 in 10.0 mi Calm Calm - N/A   Clear
5:15 AM 15.8 °F - 5.0 °F 62% 30.34 in 10.0 mi Calm Calm - N/A   Clear
5:35 AM 12.2 °F - 5.0 °F 73% 30.34 in 10.0 mi Calm Calm - N/A   Clear
5:55 AM 6.8 °F - -0.4 °F 72% 30.35 in 10.0 mi Calm Calm - N/A   Clear
6:15 AM 8.6 °F - 1.4 °F 73% 30.35 in 10.0 mi Calm Calm - N/A   Clear
6:35 AM 12.2 °F - 3.2 °F 67% 30.36 in 10.0 mi Calm Calm - N/A   Clear
6:55 AM 10.4 °F - 1.4 °F 67% 30.36 in 10.0 mi Calm Calm - N/A   Clear
7:15 AM 10.4 °F - 1.4 °F 67% 30.36 in 10.0 mi Calm Calm - N/A   Clear
7:35 AM 10.4 °F - -0.4 °F 62% 30.36 in 10.0 mi Calm Calm - N/A   Clear
7:55 AM 12.2 °F - 3.2 °F 67% 30.37 in 10.0 mi Calm Calm - N/A   Clear
8:35 AM 24.8 °F - 8.6 °F 50% 30.38 in 10.0 mi Calm Calm - N/A   Clear
8:55 AM 26.6 °F - 8.6 °F 47% 30.38 in 10.0 mi Calm Calm - N/A   Clear
9:15 AM 30.2 °F 26.7 °F 6.8 °F 37% 30.38 in 10.0 mi SE 3.5 mph - N/A   Clear
9:35 AM 32.0 °F 26.4 °F 6.8 °F 35% 30.38 in 10.0 mi SE 5.8 mph - N/A   Clear
9:55 AM 33.8 °F 30.8 °F 6.8 °F 32% 30.38 in 10.0 mi SE 3.5 mph - N/A   Clear
10:15 AM 37.4 °F - 6.8 °F 28% 30.38 in 10.0 mi Calm Calm - N/A   Clear
10:35 AM 39.2 °F 35.9 °F 6.8 °F 26% 30.38 in 10.0 mi SE 4.6 mph - N/A   Clear
10:55 AM 42.8 °F 40.1 °F 8.6 °F 25% 30.37 in 10.0 mi SE 4.6 mph - N/A   Clear
11:15 AM 44.6 °F 42.2 °F 8.6 °F 23% 30.36 in 10.0 mi SE 4.6 mph - N/A   Clear
11:35 AM 48.2 °F - 6.8 °F 19% 30.35 in 10.0 mi SE 4.6 mph - N/A   Clear
11:55 AM 50.0 °F - 6.8 °F 17% 30.33 in 10.0 mi SE 6.9 mph - N/A   Clear
12:15 PM 50.0 °F - 6.8 °F 17% 30.32 in 7.0 mi SE 4.6 mph - N/A   Clear
12:35 PM 53.6 °F - 6.8 °F 15% 30.31 in 10.0 mi SE 4.6 mph - N/A   Clear
12:55 PM 53.6 °F - 6.8 °F 15% 30.30 in 10.0 mi ESE 5.8 mph - N/A   Clear
1:15 PM 55.4 °F - 6.8 °F 14% 30.30 in 10.0 mi ESE 8.1 mph - N/A   Clear
1:35 PM 55.4 °F - 6.8 °F 14% 30.30 in 10.0 mi ESE 5.8 mph - N/A   Clear
1:55 PM 55.4 °F - 6.8 °F 14% 30.29 in 10.0 mi ESE 6.9 mph - N/A   Clear
2:15 PM 55.4 °F - 6.8 °F 14% 30.29 in 10.0 mi ESE 4.6 mph - N/A   Clear
2:35 PM 57.2 °F - 6.8 °F 13% 30.29 in 10.0 mi ESE 6.9 mph - N/A   Clear
2:55 PM 55.4 °F - 5.0 °F 13% 30.29 in 10.0 mi ESE 5.8 mph - N/A   Clear
3:15 PM 55.4 °F - 5.0 °F 13% 30.30 in 10.0 mi SE 5.8 mph - N/A   Clear
3:35 PM 53.6 °F - 5.0 °F 14% 30.30 in 10.0 mi SE 6.9 mph - N/A   Clear
3:55 PM 50.0 °F - 3.2 °F 15% 30.30 in 10.0 mi ESE 5.8 mph - N/A   Clear
4:15 PM 48.2 °F - 1.4 °F 15% 30.30 in 10.0 mi SSE 4.6 mph - N/A   Clear
4:35 PM 44.6 °F 41.4 °F 1.4 °F 17% 30.31 in 10.0 mi SSE 5.8 mph - N/A   Clear
4:55 PM 42.8 °F 41.1 °F 1.4 °F 18% 30.31 in 10.0 mi SE 3.5 mph - N/A   Clear
5:15 PM 41.0 °F 39.0 °F 1.4 °F 19% 30.31 in 10.0 mi SSE 3.5 mph - N/A   Clear
5:35 PM 39.2 °F - 3.2 °F 22% 30.32 in 10.0 mi Calm Calm - N/A   Clear
5:55 PM 35.6 °F - 1.4 °F 24% 30.33 in 10.0 mi Calm Calm - N/A   Clear
6:15 PM 32.0 °F - 1.4 °F 27% 30.33 in 10.0 mi Calm Calm - N/A   Clear
6:35 PM 30.2 °F 26.7 °F 1.4 °F 29% 30.34 in 10.0 mi NW 3.5 mph - N/A   Clear
6:55 PM 32.0 °F - 5.0 °F 32% 30.34 in 10.0 mi Calm Calm - N/A   Clear
7:15 PM 32.0 °F - 3.2 °F 30% 30.34 in 10.0 mi Calm Calm - N/A   Clear
7:35 PM 32.0 °F - 5.0 °F 32% 30.35 in 10.0 mi Calm Calm - N/A   Clear
7:55 PM 30.2 °F - 5.0 °F 34% 30.35 in 10.0 mi Calm Calm - N/A   Clear
8:15 PM 26.6 °F - 3.2 °F 37% 30.35 in 10.0 mi Calm Calm - N/A   Clear
8:35 PM 23.0 °F - 1.4 °F 39% 30.36 in 10.0 mi Calm Calm - N/A   Clear
8:55 PM 26.6 °F - 3.2 °F 37% 30.35 in 10.0 mi Calm Calm - N/A   Clear
9:15 PM 26.6 °F - 6.8 °F 43% 30.35 in 10.0 mi Calm Calm - N/A   Clear
9:35 PM 21.2 °F - 1.4 °F 42% 30.35 in 10.0 mi Calm Calm - N/A   Clear
9:55 PM 23.0 °F - 5.0 °F 46% 30.35 in 10.0 mi Calm Calm - N/A   Clear
10:15 PM 24.8 °F 20.5 °F 6.8 °F 46% 30.36 in 10.0 mi North 3.5 mph - N/A   Clear
10:35 PM 23.0 °F - 6.8 °F 50% 30.36 in 10.0 mi Calm Calm - N/A   Clear
10:55 PM 24.8 °F - 6.8 °F 46% 30.35 in 10.0 mi Calm Calm - N/A   Clear
11:15 PM 23.0 °F - 6.8 °F 50% 30.35 in 10.0 mi Calm Calm - N/A   Clear
11:35 PM 23.0 °F - 6.8 °F 50% 30.34 in 10.0 mi Calm Calm - N/A   Clear
11:55 PM 19.4 °F - 5.0 °F 54% 30.34 in 10.0 mi Calm Calm - N/A   Clear